www.pogodaiklimat.ru

Погода и климат >> Архив погоды >> Япония >> Сайго


ПОГОДА в Сайго

  • Прогноз погоды в Сайго
  • Монитор погоды в Сайго

АРХИВ ПОГОДЫ в Сайго

Время (UTC), дата Ветер
(напр.,м/с)
 
Видим.   Явления Облачность Т
(С)
Тd
(С)
f
(%)
Тe
(С)
Тes
(С)
Комфортность P
(гПа)
Po
(гПа)
Тmin
(С)
Tmax
(С)
R
(мм)
R24
(мм)
S
(см)
22 8.09 СЗ 2 15 км н/о +25.7 +24.3 92 +36 +36 очень
душно
1010.6 1007.4
23 8.09 штиль 0 9000 м дымка н/о +28.8 +25.0 80 +42 +42 опасность
перегрева
1010.9 1007.7
00 9.09 ЮВ 3 11 км н/о +29.2 +26.2 84 +44 +44 опасность
перегрева
1011.2 1008.0 +25.2 0.0
02 9.09 ЮВ 3 13 км н/о +30.3 +26.5 80 +46 +46 опасность
перегрева
1010.8 1007.6
03 9.09 ЮВ 3 12 км н/о +29.7 +26.5 83 +46 +46 опасность
перегрева
1010.7 1007.5
04 9.09 Ю 3 13 км н/о +29.9 +25.2 76 +43 +43 опасность
перегрева
1010.3 1007.1
05 9.09 Ю 3 8000 м дым н/о +30.3 +25.6 76 +45 +45 опасность
перегрева
1010.1 1006.9
06 9.09 Ю 3 13 км н/о +30.2 +25.3 75 +44 +44 опасность
перегрева
1009.9 1006.7
07 9.09 Ю 2 8000 м дым н/о +30.7 +24.8 71 +44 +44 опасность
перегрева
1009.8 1006.7
08 9.09 В 3 16 км н/о +29.4 +24.7 76 +42 +42 опасность
перегрева
1010.4 1007.2
09 9.09 В 3 20 км н/о +28.4 +25.4 84 +42 +42 опасность
перегрева
1010.8 1007.6
10 9.09 СВ 2 11 км н/о +27.8 +25.4 87 +41 +41 опасность
перегрева
1011.4 1008.2
11 9.09 СВ 1 12 км н/о +27.2 +25.2 89 +39 +39 очень
душно
1012.3 1009.1
12 9.09 С 1 20 км н/о +26.5 +25.3 93 +38 +38 очень
душно
1012.5 1009.3 +31.1
15 9.09 З 1 20 км н/о +25.2 +24.3 95 +35 +35 очень
душно
1012.5 1009.3
16 9.09 СЗ 1 20 км н/о +25.0 +24.2 95 +34 +34 очень
душно
1012.5 1009.3
17 9.09 СЗ 1 20 км н/о +25.0 +24.2 95 +34 +34 очень
душно
1012.2 1009.0
18 9.09 З 1 20 км н/о +24.7 +24.0 96 +34 +34 очень
душно
1012.3 1009.1
19 9.09 СЗ 1 20 км н/о +24.7 +24.2 97 +34 +34 очень
душно
1012.7 1009.5
21 9.09 СЗ 1 20 км н/о +24.9 +24.2 96 +34 +34 очень
душно
1013.6 1010.4
23 9.09 Ю 1 11 км н/о +26.6 +24.8 90 +38 +38 очень
душно
1014.3 1011.1
00 10.09 ЮВ 1 10 км н/о +29.2 +26.4 85 +45 +45 опасность
перегрева
1014.8 1011.6 +24.5
01 10.09 Ю 2 11 км н/о +29.3 +26.5 85 +45 +45 опасность
перегрева
1014.8 1011.6
02 10.09 ЮЗ 2 14 км н/о +30.4 +25.9 77 +45 +45 опасность
перегрева
1014.5 1011.3
03 10.09 Ю 2 9000 м дым н/о +32.7 +26.0 68 +48 +48 опасность
перегрева
1013.9 1010.8
04 10.09 СВ 3 8000 м дымка н/о +30.6 +26.3 78 +47 +47 опасность
перегрева
1013.5 1010.3
05 10.09 СВ 3 н/о н/о +30.3 +25.8 77 +45 +45 опасность
перегрева
1013.3 1010.1
06 10.09 ЮВ 4 11 км н/о +30.0 +26.0 79 +45 +45 опасность
перегрева
1013.2 1010.0
07 10.09 ЮВ 3 17 км н/о +29.2 +26.0 83 +44 +44 опасность
перегрева
1013.2 1010.0
08 10.09 ЮВ 3 13 км н/о +28.9 +26.3 86 +44 +44 опасность
перегрева
1013.4 1010.2
09 10.09 СВ 1 15 км н/о +28.5 +25.9 86 +43 +43 опасность
перегрева
1013.6 1010.4
10 10.09 СВ 2 10 км н/о +27.9 +25.9 89 +42 +42 опасность
перегрева
1014.0 1010.8
11 10.09 Ю 2 8000 м слаб. дождь н/о +27.6 +25.6 89 +41 +41 опасность
перегрева
1014.5 1011.3
12 10.09 ЮВ 2 9000 м в посл. час дождь н/о +27.6 +26.4 93 +42 +42 опасность
перегрева
1014.6 1011.4 +32.8 0.0
13 10.09 СЗ 1 8000 м дымка н/о +27.0 +25.4 91 +39 +39 очень
душно
1014.6 1011.4
15 10.09 З 1 10 км н/о +26.1 +24.9 93 +37 +37 очень
душно
1014.4 1011.2
16 10.09 З 2 8000 м дымка н/о +25.7 +25.0 96 +37 +37 очень
душно
1014.0 1010.8
17 10.09 СЗ 2 8000 м дымка н/о +25.8 +25.1 96 +37 +37 очень
душно
1013.8 1010.6
18 10.09 СЗ 2 7000 м дымка н/о +25.7 +25.2 97 +37 +37 очень
душно
1013.8 1010.6
19 10.09 З 2 8000 м дымка н/о +25.8 +25.3 97 +37 +37 очень
душно
1013.8 1010.6
20 10.09 З 1 7000 м дымка н/о +25.5 +25.0 97 +36 +36 очень
душно
1013.5 1010.3
21 10.09 З 1 10 км н/о +25.3 +24.3 94 +35 +35 очень
душно
1013.7 1010.5
22 10.09 СЗ 2 10 км н/о +25.6 +24.4 93 +36 +36 очень
душно
1014.0 1010.8
23 10.09 ЮЗ 1 10 км н/о +27.2 +24.5 85 +38 +38 очень
душно
1014.3 1011.1
00 11.09 З 4 11 км н/о +28.4 +25.2 83 +41 +41 опасность
перегрева
1014.3 1011.1 +25.2
01 11.09 З 6 10 км н/о +29.3 +25.1 78 +42 +42 опасность
перегрева
1014.1 1010.9
02 11.09 З 5 н/о н/о +27.9 +23.7 78 +38 +38 очень
душно
1014.1 1010.9
03 11.09 СЗ 6 н/о н/о +27.7 +22.6 74 +37 +37 очень
душно
1013.9 1010.7
04 11.09 СЗ 5 н/о н/о +28.6 +22.8 71 +38 +38 очень
душно
1013.4 1010.2
05 11.09 СЗ 5 н/о н/о +28.1 +22.4 71 +37 +37 очень
душно
1012.9 1009.7
06 11.09 С 2 20 км {дождь} н/о +28.2 +23.1 74 +38 +38 очень
душно
1012.9 1009.7 0.0
07 11.09 СВ 4 н/о н/о +25.7 +23.2 86 +34 +34 очень
душно
1013.1 1009.9
08 11.09 СВ 3 н/о н/о +25.3 +22.2 83 +33 +33 очень
душно
1013.9 1010.7
09 11.09 СВ 2 18 км слаб. дождь н/о +24.2 +22.1 88 +31 +31 очень
душно
1014.5 1011.3
10 11.09 СВ 3 12 км слаб. дождь н/о +23.4 +22.4 94 +32 +32 очень
душно
1015.5 1012.2
11 11.09 С 2 20 км в посл. час дождь н/о +23.2 +22.0 93 +32 +32 очень
душно
1016.1 1012.8
12 11.09 СВ 3 20 км {дождь} н/о +23.7 +21.2 86 +30 +30 очень
душно
1016.4 1013.2 +29.4 0.0
13 11.09 СВ 3 20 км н/о +23.9 +20.0 79 +29 +29 душно 1016.3 1013.1
14 11.09 СВ 3 20 км н/о +23.6 +19.8 79 +29 +29 душно 1016.6 1013.3
15 11.09 СВ 3 20 км н/о +23.4 +19.1 77 +30 +30 очень
душно
1016.5 1013.2
16 11.09 С 3 20 км н/о +23.2 +19.0 77 +29 +29 душно 1016.5 1013.2
17 11.09 С 2 20 км н/о +23.1 +19.3 79 +29 +29 очень
душно
1016.2 1012.9
18 11.09 СВ 4 20 км слаб. дождь н/о +23.6 +19.8 79 +29 +29 душно 1015.8 1012.6 0.0
19 11.09 СВ 3 20 км н/о +23.3 +18.6 75 +29 +29 душно 1016.2 1012.9
20 11.09 СВ 2 20 км н/о +22.9 +17.8 73 +28 +28 душно 1016.5 1013.2
21 11.09 СВ 3 20 км н/о +23.1 +18.0 73 +29 +29 очень
душно
1016.9 1013.6
23 11.09 СВ 4 20 км н/о +23.8 +16.6 64 +27 +27 жарко 1017.4 1014.1
00 12.09 СВ 5 20 км н/о +24.4 +16.2 60 +28 +28 душно 1017.4 1014.2 +22.8 0.0
01 12.09 СВ 4 20 км н/о +23.8 +16.1 62 +27 +27 жарко 1017.3 1014.0
02 12.09 СВ 4 20 км н/о +25.6 +17.5 61 +30 +30 душно 1017.1 1013.9
03 12.09 СВ 4 20 км н/о +24.6 +16.1 59 +28 +28 душно 1017.1 1013.9
04 12.09 СВ 5 20 км н/о +25.5 +16.1 56 +29 +29 душно 1016.5 1013.3
05 12.09 СВ 5 20 км н/о +24.9 +16.1 58 +28 +28 жарко 1015.9 1012.7
06 12.09 СВ 4 20 км н/о +23.9 +15.9 61 +27 +27 жарко 1015.9 1012.7
07 12.09 СВ 4 20 км н/о +24.6 +15.8 58 +28 +28 душно 1015.7 1012.5
08 12.09 СВ 4 20 км н/о +23.7 +15.8 61 +27 +27 жарко 1015.4 1012.2
09 12.09 СВ 4 20 км н/о +23.4 +16.5 65 +28 +28 душно 1015.7 1012.4
10 12.09 СВ 5 20 км н/о +23.6 +18.0 71 +28 +28 душно 1015.3 1012.1
11 12.09 СВ 4 20 км н/о +23.4 +17.6 70 +29 +29 душно 1016.3 1013.0
12 12.09 СВ 4 20 км н/о +23.3 +17.8 71 +29 +29 душно 1016.1 1012.8 +26.2
13 12.09 В 6 20 км н/о +23.3 +17.3 69 +29 +29 душно 1015.7 1012.4
15 12.09 СВ 4 20 км н/о +23.1 +16.9 68 +28 +28 душно 1015.1 1011.8
16 12.09 СВ 5 20 км н/о +22.9 +16.5 67 +28 +28 душно 1014.5 1011.2
18 12.09 СВ 2 20 км н/о +22.3 +17.2 73 +27 +27 душно 1014.1 1010.8
19 12.09 СВ 3 20 км н/о +22.8 +17.3 71 +28 +28 душно 1014.2 1010.9
20 12.09 СВ 3 20 км н/о +22.8 +17.3 71 +28 +28 душно 1013.9 1010.6
21 12.09 СВ 4 20 км н/о +22.9 +17.4 71 +28 +28 душно 1013.9 1010.6
22 12.09 СВ 4 20 км н/о +24.0 +17.7 68 +28 +28 душно 1013.8 1010.6
23 12.09 СВ 4 20 км н/о +24.9 +16.6 60 +28 +28 жарко 1014.1 1010.9
00 13.09 СВ 4 20 км н/о +25.7 +16.8 58 +29 +29 душно 1014.4 1011.2 +22.1
01 13.09 СВ 4 20 км н/о +25.6 +17.5 61 +30 +30 душно 1014.6 1011.4
02 13.09 В 4 20 км н/о +25.9 +19.1 66 +31 +31 очень
душно
1014.0 1010.8
03 13.09 СВ 5 20 км н/о +26.3 +19.0 64 +31 +31 душно 1013.2 1010.0
04 13.09 СВ 6 20 км н/о +26.0 +18.7 64 +31 +31 очень
душно
1012.5 1009.3
05 13.09 СВ 5 20 км н/о +25.3 +19.4 70 +31 +31 очень
душно
1012.3 1009.1
06 13.09 СВ 5 20 км н/о +25.4 +19.3 69 +31 +31 очень
душно
1011.9 1008.7
08 13.09 В 6 20 км н/о +25.0 +20.1 74 +31 +31 очень
душно
1012.0 1008.8
09 13.09 В 5 20 км н/о +24.9 +20.6 77 +31 +31 очень
душно
1012.1 1008.9
10 13.09 В 3 20 км н/о +24.7 +21.6 83 +32 +32 очень
душно
1012.2 1009.0
11 13.09 В 4 20 км н/о +24.9 +22.0 84 +32 +32 очень
душно
1012.6 1009.4
12 13.09 В 5 20 км н/о +25.1 +22.0 83 +32 +32 очень
душно
1012.5 1009.3 +27.0
13 13.09 В 4 20 км н/о +25.1 +22.2 84 +33 +33 очень
душно
1012.4 1009.2
14 13.09 В 4 20 км н/о +25.3 +21.2 78 +32 +32 очень
душно
1012.1 1008.9
15 13.09 В 3 20 км н/о +25.1 +20.8 77 +31 +31 очень
душно
1011.8 1008.6
16 13.09 СВ 2 20 км н/о +24.1 +20.8 82 +30 +30 очень
душно
1011.3 1008.1
17 13.09 СЗ 2 20 км н/о +21.8 +20.8 94 +28 +28 душно 1011.2 1007.9
18 13.09 СЗ 1 20 км н/о +21.3 +20.6 96 +27 +27 душно 1011.0 1007.7
19 13.09 З 2 18 км н/о +20.7 +20.2 97 +26 +26 душно 1011.0 1007.7
21 13.09 СЗ 1 15 км н/о +20.3 +20.1 99 +25 +25 комфорт 1011.5 1008.2
00 14.09 Ю 3 20 км н/о +26.8 +21.1 71 +34 +34 очень
душно
1011.7 1008.5 +20.2
01 14.09 Ю 3 20 км н/о +27.1 +20.9 69 +34 +34 очень
душно
1011.7 1008.5
02 14.09 Ю 4 20 км н/о +27.8 +21.6 69 +36 +36 очень
душно
1011.3 1008.1
03 14.09 Ю 3 20 км н/о +29.2 +21.2 62 +37 +37 очень
душно
1010.8 1007.6
04 14.09 ЮЗ 5 20 км н/о +28.3 +20.1 61 +35 +35 очень
душно
1010.3 1007.1
05 14.09 ЮЗ 5 20 км н/о +28.4 +19.9 60 +35 +35 очень
душно
1010.0 1006.8
06 14.09 Ю 3 20 км н/о +27.7 +21.3 68 +35 +35 очень
душно
1009.6 1006.4
07 14.09 Ю 2 20 км н/о +28.4 +22.2 69 +37 +37 очень
душно
1009.5 1006.3
08 14.09 СВ 2 20 км н/о +27.4 +22.4 74 +36 +36 очень
душно
1009.5 1006.3
09 14.09 В 2 20 км н/о +26.6 +22.9 80 +35 +35 очень
душно
1009.8 1006.6
10 14.09 СВ 1 20 км н/о +25.4 +22.9 86 +34 +34 очень
душно
1010.0 1006.8
11 14.09 З 2 20 км н/о +24.4 +22.5 89 +32 +32 очень
душно
1010.5 1007.3
12 14.09 СЗ 2 20 км н/о +23.6 +22.4 93 +31 +31 очень
душно
1010.8 1007.6 +29.5
13 14.09 СЗ 2 20 км н/о +22.9 +21.9 94 +31 +31 очень
душно
1011.0 1007.8
14 14.09 СЗ 1 20 км н/о +22.7 +21.7 94 +30 +30 очень
душно
1010.9 1007.7
15 14.09 СЗ 1 20 км н/о +22.7 +21.9 95 +30 +30 очень
душно
1010.6 1007.4
16 14.09 СЗ 1 20 км н/о +22.9 +21.9 94 +31 +31 очень
душно
1010.5 1007.3
18 14.09 штиль 0 17 км н/о +22.4 +21.9 97 +30 +30 очень
душно
1009.8 1006.6
19 14.09 СЗ 1 16 км н/о +22.4 +21.9 97 +30 +30 очень
душно
1009.6 1006.4
20 14.09 С 1 18 км н/о +22.5 +21.8 96 +30 +30 очень
душно
1009.6 1006.4
21 14.09 СЗ 1 20 км н/о +22.7 +22.0 96 +31 +31 очень
душно
1009.9 1006.7
22 14.09 СЗ 1 20 км н/о +23.5 +22.3 93 +31 +31 очень
душно
1010.0 1006.8
23 14.09 З 1 20 км н/о +25.7 +23.0 85 +34 +34 очень
душно
1010.1 1006.9
00 15.09 С 1 20 км н/о +27.2 +23.2 79 +37 +37 очень
душно
1010.4 1007.2 +22.3
01 15.09 В 2 20 км н/о +29.3 +22.3 66 +38 +38 очень
душно
1010.0 1006.8
02 15.09 ЮЗ 3 20 км н/о +27.5 +23.1 77 +37 +37 очень
душно
1009.8 1006.6
03 15.09 Ю 3 20 км слаб. дождь н/о +25.9 +22.8 83 +34 +34 очень
душно
1009.7 1006.5
04 15.09 СВ 2 20 км в посл. час дождь н/о +25.9 +23.0 84 +35 +35 очень
душно
1008.9 1005.7
05 15.09 СВ 2 20 км н/о +27.1 +20.7 68 +34 +34 очень
душно
1008.4 1005.2
06 15.09 СВ 3 20 км {дождь} н/о +26.4 +21.6 75 +34 +34 очень
душно
1008.2 1005.0 0.0
07 15.09 С 2 20 км н/о +26.8 +22.2 76 +35 +35 очень
душно
1008.1 1004.9
08 15.09 СВ 3 20 км н/о +26.1 +22.0 78 +34 +34 очень
душно
1008.1 1004.9
09 15.09 С 3 20 км н/о +25.1 +21.6 81 +32 +32 очень
душно
1008.4 1005.2
10 15.09 С 3 20 км н/о +24.5 +21.4 83 +31 +31 очень
душно
1008.8 1005.6
11 15.09 С 3 20 км н/о +24.5 +21.4 83 +31 +31 очень
душно
1009.1 1005.9
12 15.09 С 2 20 км н/о +24.6 +21.1 81 +31 +31 очень
душно
1009.2 1006.0 +30.6 0.0
13 15.09 С 2 20 км н/о +24.4 +21.1 82 +31 +31 очень
душно
1009.2 1006.0
14 15.09 С 1 20 км н/о +24.1 +21.2 84 +30 +30 очень
душно
1008.8 1005.6
15 15.09 СЗ 1 20 км н/о +23.5 +21.0 86 +30 +30 очень
душно
1008.6 1005.4
16 15.09 З 2 20 км н/о +22.5 +21.0 91 +29 +29 очень
душно
1008.3 1005.1
17 15.09 СЗ 2 20 км н/о +22.6 +20.9 90 +30 +30 очень
душно
1008.2 1005.0
18 15.09 СЗ 2 20 км н/о +22.5 +21.0 91 +29 +29 очень
душно
1007.8 1004.6
19 15.09 СЗ 2 20 км н/о +22.1 +20.9 93 +29 +29 очень
душно
1007.7 1004.5
21 15.09 СЗ 2 20 км н/о +21.9 +20.4 91 +28 +28 душно 1007.7 1004.5

 

Местоположение метеостанции Сайго (Япония): широта 36.20 долгота 133.33 высота над уровнем моря 31 м.

В архиве по умолчанию представлена погода в Сайго за последнюю неделю. Архивные данные за месяц целиком и за предыдущие месяцы, начиная с января 2011 года, Вы можете получить, выбрав интересующий диапазон дат из раскрывающегося списка и нажав кнопку "Ввод!".


*Определитесь, кто Вы:
робот инопланетянин человек

Внимание! Время в таблицах - всемирное. Для получения местного времени необходимо прибавить поправку, которая равна 9 ч.

Смотрите также архив погоды в соседних городах и на ближайших метеорологических станциях:

Погода в Сакаи (Япония) (73 км)
Погода в Йонаго (Япония) (86 км)
Погода в Мацуэ (Япония) (87 км)
Погода в Тоттори (Япония) (112 км)
Погода в Цуяме (Япония) (140 км)
Погода в Тоёоке (Япония) (153 км)
Погода в Окаяме (Япония) (178 км)
Погода в Хамаде (Япония) (185 км)
Погода в Химедзи (Япония) (194 км)
Погода в Фукуяме (Япония) (195 км)

Пояснения к столбцам:

Ветер - указаны скорость ветра в м/с - средняя за 10 мин, порывы в срок и между сроками (в фигурных скобках) и направление, откуда дует ветер: С - северный, СВ - северо-восточный, В - восточный, ЮВ - юго-восточный, Ю - южный, ЮЗ - юго-западный, З - западный, СЗ - северо-западный.
Видимость - горизонтальная дальность видимости в метрах или километрах. При видимости от 1 до 10 км при отсутствии осадков обычно наблюдается дымка, при ухудшении видимости до 1 км и менее - туман. В сухую погоду видимость может ухудшаться дымом, пылью или мглою.
Явления - указаны атмосферные явления, наблюдавшиеся в срок или в последний час перед сроком; фигурными скобками обозначены явления, наблюдавшиеся между сроками (за 1-3 часа до срока); квадратными скобками обозначены град или гололедные отложения с указанием их диаметра в мм.
Облачность - указаны через наклонную черту общая и нижняя облачность в баллах и высота нижней границы облаков в метрах; квадратными скобками обозначены формы облаков: Ci - перистые, Cs - перисто-слоистые, Cc - перисто-кучевые, Ac - высококучевые, As - высокослоистые, Sc - слоисто-кучевые, Ns - слоисто-дождевые, Cu - кучевые, Cb - кучево-дождевые. Подробнее классификацию облаков см. в Атласе облаков (PDF).
T - Температура воздуха - температура, измеренная на высоте 2 м над землей.
Td - Температура точки росы - температура, при понижении до которой содержащийся в воздухе водяной пар достигнет насыщения.
f - Относительная влажность воздуха - влажноcть воздуха, измеренная на высоте 2 м над землей.
Te - Эффективная температура - температура, которую ощущает одетый по сезону человек в тени. Характеристика душности погоды. При расчете учитывается влияние влажности воздуха и скорости ветра на теплоощущения человека.
Tes - Эффективная температура на солнце - температура, которую ощущает человек, с поправкой на солнечный нагрев. Характеристика знойности погоды. Зависит от высоты солнца над горизонтом, облачности и скорости ветра. Ночью, в пасмурную погоду, а также при ветре 12 м/с и более поправка равна нулю.
P - Атмосферное давление - приведенное к уровню моря атмосферное давление.
Po - Атмосферное давление - измеренное на уровне метеостанции атмосферное давление.
Tmin - Минимальная температура - минимум температуры воздуха на высоте 2 м над землей.
Tmax - Максимальная температура - максимум температуры воздуха на высоте 2 м над землей.
R - Количество осадков - Количество выпавших осадков за период времени, мм. При наведении курсора мыши на число - период времени, за который выпало указанное количество осадков.
R24 - Количество осадков - Количество выпавших осадков за 24 часа, мм.
S - Снежный покров - Высота снежного покрова, см. При наведении курсора мыши на число - состояние снежного покрова и степень покрытия местности в баллах.